Weather in Penç-i Pâyin Köyü

Tajikistan     37°12′47″N   68°34′48″E
В апреле 2022 года жителям России запретили посещать сайт meteo.paraplan.net по решению Генеральной прокуратуры. Аудитория сайта уменьшилась в 10 раз. Владельцы сайта не видят смысла в поддержке погодного сервера в таких условиях. Сайт будет закрыт в октябре.
temp.,
°C
wind,
m/s
gust,
m/s
humid.,
%
clouds,
%
prec.,
mm/h
press.,
hPa
HPBL,
m
26 september, mon
mon2623:00+23w11230 0.0 101111
02:00+21nne33210 0.0 101312
05:00+20nne33240 0.0 101412
08:00+23nne23200 0.0 1015102
11:00+29wnw11140 0.0 1015757
14:00+33wsw44100 0.0 10121800
17:00+33w45110 0.0 10121384
20:00+26wsw33160 0.0 101415
27 september, tue
tue2723:00+24wsw22170 0.0 101411
02:00+21nne22190 0.0 101411
05:00+19nne33230 0.0 101512
08:00+23n22200 0.0 101591
11:00+29wsw23160 0.0 10141032
14:00+31w45170 0.0 10111440
17:00+31w55150 0.0 10101447
20:00+25wsw33220 0.0 101217
28 september, wed
wed2823:00+22w22260 0.0 101211
02:00+20nne22290 0.0 101212
05:00+19nne23300 0.0 101212
08:00+22nne22250 0.0 1013104
11:00+28wnw11170 0.0 1012821
14:00+31w22140 0.0 10091646
17:00+31wsw22130 0.0 10081552
20:00+25wsw23190 0.0 100911
29 september, thu
thu2923:00+22wnw12230 0.0 100911
02:00+21nne33250 0.0 101016
05:00+19nne33280 0.0 101011
08:00+22nne23240 0.0 1011102
11:00+29ne11160 0.0 1009686
14:00+32nw11120 0.0 10071528
17:00+32wsw12120 0.0 1006661
20:00+25sw22170 0.0 100711
30 september, fri
fri3023:00+22wnw11240 0.0 100811
02:00+21nne332111 0.0 100911
05:00+19nne332420 0.0 100911
08:00+23nne22205 0.0 101179
11:00+29nw01140 0.0 1011704
14:00+33wsw23110 0.0 10091813
17:00+32wsw34100 0.0 1008290
20:00+25wsw33160 0.0 101014